Temperature
11 10 11 12 13 14 16 16 16 18 19 19 18 18 19 20 20 20 22 22 22 22 21 21 20 20 19 18 17 17 16 15 14 14 13 13 13 13 13 13 12 12 12 12
10 10 12 14 14 14 15 15 15 17 18 18 18 18 19 20 20 20 21 22 22 22 22 21 21 20 19 18 18 17 16 16 15 15 15 15 14 14 13 13 13 12 12 12
10 11 13 13 14 13 14 14 15 16 17 17 17 17 18 19 20 21 21 21 22 22 21 21 21 20 19 19 18 17 17 16 16 15 14 13 13 13 12 13 13 13 12 12
10 12 13 13 13 13 13 15 15 15 15 14 15 14 17 18 18 19 20 21 21 21 21 21 21 20 20 19 18 17 17 16 16 15 14 14 14 14 14 14 14 13 13 12
10 12 12 12 13 14 14 15 15 15 14 13 15 14 16 18 18 19 19 20 21 21 21 21 20 20 20 19 18 18 17 16 16 15 15 15 14 15 14 13 13 13 13 12
10 12 12 13 14 14 13 13 13 13 12 12 13 14 15 17 18 19 19 20 21 21 20 20 20 20 20 19 18 18 17 16 15 15 15 15 15 14 13 13 13 13 12 12
9 10 11 12 12 13 12 11 10 10 10 11 14 14 15 18 19 20 20 20 21 21 20 20 20 20 19 19 18 18 17 16 15 15 15 15 14 14 14 14 13 13 12 12
8 9 11 12 12 11 11 11 11 11 11 13 14 14 16 18 19 20 21 21 21 20 20 20 20 19 19 19 18 18 17 16 16 15 15 14 14 14 13 13 13 13 13 13
8 9 11 12 12 12 11 11 12 12 12 13 14 16 17 18 18 18 19 19 19 19 19 19 19 19 19 18 18 18 17 17 16 16 15 14 14 14 13 13 13 12 12 12
7 8 9 11 11 11 12 11 11 10 11 11 14 15 16 16 17 17 17 17 19 19 19 18 18 18 18 18 18 17 17 17 16 16 15 14 14 14 13 13 13 12 12 12
6 7 8 9 9 10 11 11 10 10 11 12 13 15 18 17 18 17 17 18 18 18 18 18 18 17 18 17 17 17 16 16 16 15 15 14 14 13 13 13 13 12 12 12
6 6 7 8 10 10 10 11 10 10 10 12 13 15 18 17 17 17 17 18 18 18 18 17 17 17 17 17 16 16 16 16 16 15 15 14 14 13 13 13 12 12 12 12
5 5 6 7 8 8 8 9 10 10 11 11 12 14 16 16 17 17 17 18 18 17 17 17 16 16 16 16 16 15 15 15 15 15 14 14 14 13 13 13 12 12 12 11
6 5 5 6 7 7 7 8 9 9 9 10 12 14 15 15 16 16 17 17 17 17 16 16 16 15 15 15 15 15 15 15 15 14 14 14 14 14 13 13 12 12 12 11
5 4 5 6 7 8 8 8 9 9 9 10 12 13 15 15 15 15 16 17 16 16 16 15 15 15 15 14 14 14 14 14 14 14 14 14 14 13 13 13 12 12 11 11
4 4 5 6 7 7 8 9 9 9 10 10 11 13 15 15 15 15 16 16 16 15 15 15 15 14 14 14 14 14 14 14 14 14 14 14 13 13 13 13 12 12 11 11
3 4 4 5 6 7 7 9 9 10 11 11 11 12 14 14 15 15 16 16 15 15 15 15 14 14 14 14 14 14 14 14 14 14 14 13 13 13 13 12 12 11 11 11
3 3 3 4 5 5 8 10 10 10 11 11 11 12 13 14 14 15 15 15 15 15 14 14 14 14 14 14 14 14 14 14 14 13 13 13 13 13 12 12 12 11 11 11
4 4 3 4 5 6 9 10 10 10 10 11 11 12 12 14 14 14 14 14 14 14 14 14 14 14 14 14 14 14 13 13 13 13 13 13 13 12 12 12 11 11 11 10
5 4 3 3 4 6 8 9 10 10 9 10 10 11 11 12 11 12 14 14 14 14 14 14 14 14 14 14 13 13 13 13 13 13 13 13 13 13 12 12 11 11 10 10
3 3 3 3 4 6 8 9 9 8 8 9 10 10 11 11 11 12 13 13 13 13 13 13 13 14 13 13 13 13 13 13 13 13 13 13 12 12 12 11 11 10 10 9
4 3 3 4 4 5 7 8 7 7 8 8 9 9 10 10 11 11 12 12 12 13 13 13 13 13 13 13 13 13 13 13 13 13 13 12 12 12 11 11 10 10 9 9
4 4 4 4 5 7 7 7 7 8 8 8 8 8 9 9 9 10 10 11 11 12 12 12 12 12 12 12 12 12 13 12 12 12 12 12 12 11 11 10 10 9 9 8
5 6 5 5 6 7 8 8 7 7 7 7 8 8 8 8 8 9 9 9 10 11 11 11 11 11 12 12 12 12 12 12 12 12 12 12 11 10 10 10 9 9 9 8
5 5 5 5 6 6 7 8 7 7 7 7 7 7 7 7 8 8 8 8 9 9 10 10 10 11 11 11 11 11 12 12 12 12 11 11 10 10 9 9 9 9 9 8
4 4 4 5 6 6 7 8 7 7 7 7 7 7 7 7 7 7 8 8 8 8 9 9 10 10 10 10 10 10 11 11 12 11 11 10 10 9 9 8 8 7 7 7
Wind_Speed
9 10 16 20 22 19 15 16 17 15 13 15 17 18 15 13 12 12 12 12 12 12 12 13 13 13 13 12 14 16 16 15 13 11 11 10 9 8 7 6 10 12 13 14
10 19 22 18 18 21 21 19 17 13 11 11 13 17 15 15 15 13 12 12 12 11 11 12 13 13 13 14 14 15 17 16 14 12 11 9 8 7 7 6 8 11 12 13
19 14 17 20 20 20 22 21 18 13 7 8 9 13 16 14 14 15 13 12 11 12 12 12 12 13 13 13 15 14 16 15 15 13 9 8 7 6 6 8 8 9 11 12
16 18 17 18 20 20 21 19 18 15 9 7 10 9 13 15 16 17 16 14 13 12 11 11 12 13 13 13 13 13 15 15 15 15 13 14 12 10 10 9 8 8 10 10
12 14 18 21 22 20 14 10 11 13 12 10 10 9 8 12 17 20 18 17 15 13 12 11 12 13 13 13 13 13 13 14 15 15 15 15 11 10 8 8 10 10 9 10
17 13 13 17 17 15 9 7 6 6 7 13 16 12 8 12 15 15 17 16 15 15 13 12 11 11 11 12 12 13 13 14 15 16 15 15 14 12 11 11 11 10 8 8
13 16 14 11 12 12 11 8 6 7 9 10 11 12 10 10 11 13 14 15 14 14 13 13 12 12 12 13 14 14 14 14 15 16 16 16 15 14 14 12 12 11 9 8
9 11 15 12 14 11 16 15 10 7 8 7 10 13 9 11 9 7 8 9 11 12 12 12 13 12 13 14 15 15 15 14 14 15 15 14 14 11 10 11 10 11 9 9
6 8 7 11 10 12 13 15 11 6 6 6 8 10 10 8 10 9 7 8 9 10 11 11 11 11 11 13 14 15 15 13 14 14 14 13 13 12 10 10 9 9 8 8
3 5 7 9 8 11 10 9 8 9 7 8 8 12 9 12 13 11 11 10 10 10 10 10 9 10 11 11 10 11 13 13 12 12 12 11 12 12 11 9 10 10 10 9
3 4 5 7 12 13 12 14 9 7 7 6 6 6 7 10 12 13 13 12 11 10 10 9 8 9 10 10 10 10 10 11 11 12 12 11 11 11 10 9 10 10 9 10
2 3 5 8 9 9 10 12 14 10 8 7 6 4 1 2 5 9 10 9 9 9 9 8 8 9 9 10 10 10 10 10 11 11 11 11 10 10 11 10 10 9 10 10
1 3 3 4 5 6 8 10 12 9 6 7 8 7 3 2 2 3 7 7 7 9 9 8 8 9 9 10 10 10 10 10 10 10 11 10 11 11 11 10 9 9 10 9
3 4 7 7 4 4 8 12 13 11 9 10 11 10 6 3 2 1 3 6 7 8 9 9 9 9 9 9 10 10 10 10 10 10 11 11 11 11 10 10 9 9 9 9
2 5 8 11 11 9 10 13 15 17 14 11 12 13 10 7 5 4 4 5 6 7 8 9 9 9 9 9 9 9 9 10 10 11 11 10 10 9 9 9 9 9 9 9
2 4 6 10 10 9 12 15 17 19 19 17 16 14 9 6 4 4 4 6 6 6 7 8 8 9 10 11 11 10 10 10 11 11 11 10 10 10 9 10 10 9 9 8
4 3 4 6 6 7 11 15 19 17 16 16 18 14 7 6 4 5 4 5 6 7 7 8 9 9 10 11 11 12 11 10 11 11 10 11 11 10 9 10 10 10 9 9
7 5 4 4 4 9 8 4 11 15 16 15 13 10 8 8 7 5 3 3 5 5 7 7 7 8 8 9 10 10 10 11 11 11 11 11 11 11 10 10 10 9 8 9
11 7 4 4 5 8 8 7 8 11 13 11 13 11 9 8 6 5 3 2 4 5 5 5 6 7 8 10 11 11 11 10 11 11 11 11 12 12 11 11 10 9 9 8
11 9 6 5 5 7 3 3 4 6 9 5 7 9 8 6 7 7 4 4 3 3 3 4 5 5 7 9 11 12 12 12 12 12 12 11 12 12 12 11 9 8 8 8
8 8 10 9 7 7 6 5 0 5 3 3 5 7 7 8 7 4 3 4 3 3 4 4 5 6 7 9 11 11 11 12 11 11 11 11 11 11 11 10 9 9 9 9
7 6 7 7 8 8 3 1 1 2 5 5 5 4 3 4 5 3 4 4 3 3 2 3 4 5 6 9 10 11 11 10 10 11 11 11 10 10 10 11 9 9 10 10
7 7 4 6 7 4 2 2 3 3 4 5 6 7 6 5 5 5 4 5 4 3 3 3 4 5 5 7 10 11 10 11 12 11 11 11 10 9 10 11 11 10 9 9
6 6 6 6 8 8 5 4 5 4 5 5 5 6 7 7 6 6 5 5 5 4 3 3 4 6 6 6 7 8 10 12 13 13 12 11 11 10 9 8 9 9 9 9
7 5 7 10 10 9 8 6 5 5 6 7 7 6 6 8 8 7 6 6 5 5 3 4 6 6 6 6 6 9 10 12 13 12 11 11 10 10 9 7 5 6 6 9
9 10 9 10 7 7 7 5 5 6 7 8 8 8 8 8 9 8 7 6 6 5 4 5 6 6 6 6 7 9 10 12 14 12 11 10 9 9 9 8 7 8 7 10
Wind_Direction
203 210 215 214 217 232 239 235 235 235 221 219 227 234 229 221 228 230 221 214 210 205 195 188 183 179 176 175 174 175 175 179 174 174 176 180 185 182 179 180 184 182 180 180
216 223 226 224 223 230 241 248 248 248 234 226 233 240 235 224 222 226 226 218 210 207 200 191 183 178 177 178 179 178 178 179 178 179 179 180 176 179 180 178 185 188 184 182
224 228 224 226 225 226 234 239 243 245 248 247 255 251 238 232 226 224 224 221 213 209 203 191 182 178 175 178 179 181 179 178 178 171 167 167 167 173 183 187 191 192 188 185
235 237 233 227 227 223 232 232 241 246 244 239 218 250 233 222 224 225 222 217 213 212 206 194 184 179 177 179 177 179 179 178 177 171 175 177 184 189 193 187 186 185 189 189
233 227 226 229 228 224 232 234 243 245 248 257 235 244 246 216 220 218 217 214 208 205 202 196 188 181 177 174 174 178 177 178 177 177 180 184 189 190 183 182 184 187 189 191
249 247 237 233 231 226 226 230 249 257 246 244 230 231 250 219 221 213 210 208 203 197 196 193 185 175 172 170 170 174 176 179 179 180 183 187 188 186 182 184 187 188 187 190
243 239 237 233 224 216 204 193 203 208 219 234 214 224 240 226 219 214 206 201 196 190 188 187 183 179 176 171 173 176 178 181 180 182 187 190 191 190 189 187 188 187 186 189
230 233 217 216 217 208 204 199 204 205 210 221 204 224 234 218 223 223 203 190 184 185 186 185 184 179 177 175 175 177 181 182 182 184 189 190 189 191 193 189 185 186 187 187
232 242 223 216 218 210 202 210 225 254 264 244 217 221 221 209 206 207 197 182 184 186 185 181 179 175 174 175 177 178 179 181 183 185 186 187 187 189 189 185 179 181 179 177
255 261 236 224 220 221 212 196 202 214 216 236 236 223 215 196 202 197 195 192 193 188 184 180 177 175 173 172 171 173 177 180 180 181 184 187 186 186 184 180 180 177 177 174
267 252 247 216 208 205 200 205 208 210 230 216 229 237 214 196 193 192 195 193 192 183 179 178 177 171 164 162 164 170 174 174 177 180 182 180 181 180 179 179 179 176 175 172
253 256 244 233 228 221 220 213 207 206 214 224 239 253 279 156 176 184 190 191 183 178 175 172 169 162 160 163 167 171 175 176 178 177 176 176 175 175 178 180 178 172 170 171
278 246 255 246 225 215 222 216 212 226 233 225 222 234 277 31 52 140 167 170 172 170 166 163 162 164 164 165 167 171 175 176 171 168 170 172 174 176 179 178 175 170 167 167
281 236 235 237 257 224 236 231 217 215 225 232 232 238 236 236 217 172 154 165 167 168 166 165 166 167 166 167 169 171 172 170 166 166 169 173 176 177 176 173 170 167 162 162
229 248 256 272 280 249 245 236 223 221 225 228 235 243 241 227 218 211 182 169 162 163 166 167 168 170 169 169 169 169 169 166 165 166 170 174 170 166 165 165 163 160 158 161
221 249 270 271 272 266 256 242 230 227 228 236 249 250 250 241 223 215 185 171 174 178 180 175 174 174 175 174 171 168 168 168 165 168 172 166 161 161 162 161 158 156 157 156
214 226 245 258 275 285 255 235 228 226 225 227 236 243 261 268 240 219 196 183 186 189 191 188 185 182 181 177 171 170 169 165 165 167 166 162 160 161 162 156 156 160 160 154
223 229 241 258 250 237 248 235 224 229 231 231 240 250 252 254 261 252 220 194 194 198 198 197 189 183 179 168 164 161 160 163 164 164 164 162 160 160 157 156 161 163 159 158
214 216 228 230 242 263 265 236 224 226 236 230 237 247 256 258 268 255 242 244 223 206 205 201 190 182 172 165 160 156 159 162 164 167 168 166 162 160 160 164 166 163 157 157
208 210 221 232 238 239 272 291 236 226 241 247 246 247 251 241 241 248 255 259 247 223 209 197 180 167 165 165 157 158 164 167 173 174 170 165 162 163 165 166 162 155 152 151
203 210 220 231 244 262 292 312 265 208 253 311 257 253 249 237 242 267 266 254 244 235 221 194 175 171 172 161 157 165 170 179 176 164 158 158 161 162 161 157 153 148 145 142
206 208 214 221 232 244 316 13 166 282 333 342 343 323 299 291 297 305 298 285 275 258 231 193 183 179 166 161 164 173 180 172 155 153 154 155 156 156 152 149 149 148 147 145
214 211 212 219 237 268 276 270 280 309 323 334 338 341 337 321 313 307 294 286 282 254 225 205 185 175 170 170 173 178 173 155 150 151 153 150 147 149 151 151 151 151 152 152
245 223 231 251 254 264 271 277 291 297 302 311 318 323 324 311 305 303 290 288 284 269 232 207 182 178 185 183 179 172 159 154 153 153 152 149 149 148 147 149 153 157 159 158
255 250 248 255 265 277 272 270 276 286 299 307 310 310 308 304 296 290 277 272 270 269 249 206 194 191 191 178 169 160 157 153 152 151 150 148 147 145 141 137 142 152 161 167
248 246 244 251 258 267 275 284 299 303 303 299 300 303 298 288 284 285 272 263 259 248 237 215 200 187 182 168 166 164 160 155 151 151 152 151 149 145 140 132 110 88 117 130
Height
1442 1444 1440 1437 1438 1438 1436 1435 1435 1431 1428 1432 1433 1433 1432 1433 1434 1435 1436 1439 1442 1445 1449 1452 1456 1460 1464 1468 1471 1475 1478 1482 1487 1490 1493 1497 1500 1504 1508 1511 1514 1516 1519 1521
1440 1436 1430 1432 1434 1435 1436 1436 1434 1429 1425 1427 1430 1428 1426 1426 1428 1429 1431 1433 1436 1439 1443 1446 1450 1453 1457 1461 1465 1469 1472 1476 1480 1484 1487 1491 1496 1500 1503 1506 1509 1512 1515 1517
1430 1424 1426 1428 1430 1432 1433 1434 1433 1431 1427 1425 1429 1429 1423 1419 1420 1423 1425 1427 1430 1433 1436 1440 1443 1446 1450 1454 1458 1463 1466 1470 1474 1479 1484 1488 1492 1496 1499 1501 1504 1507 1510 1513
1424 1421 1422 1423 1424 1426 1429 1426 1428 1428 1433 1433 1432 1435 1419 1414 1415 1415 1416 1419 1422 1427 1430 1433 1437 1440 1444 1448 1453 1457 1461 1465 1469 1473 1477 1481 1484 1486 1490 1494 1498 1502 1505 1508
1418 1415 1417 1418 1417 1420 1422 1422 1425 1427 1431 1434 1428 1431 1417 1406 1407 1406 1407 1411 1414 1419 1423 1427 1430 1434 1438 1442 1446 1451 1455 1460 1463 1467 1471 1475 1478 1482 1486 1490 1493 1497 1500 1503
1414 1412 1412 1411 1412 1416 1419 1425 1428 1429 1433 1435 1426 1429 1416 1403 1397 1396 1398 1402 1406 1411 1416 1421 1425 1429 1432 1436 1440 1445 1450 1454 1458 1462 1465 1469 1473 1477 1480 1484 1487 1490 1493 1497
1411 1408 1407 1408 1411 1414 1419 1428 1435 1437 1436 1428 1415 1417 1406 1389 1385 1387 1390 1393 1398 1403 1408 1413 1418 1422 1426 1430 1434 1439 1443 1448 1452 1456 1459 1463 1467 1471 1474 1478 1481 1484 1487 1490
1410 1405 1402 1402 1405 1408 1411 1418 1425 1426 1425 1415 1408 1407 1393 1382 1381 1381 1383 1387 1391 1397 1401 1406 1410 1415 1419 1423 1428 1432 1437 1441 1446 1449 1453 1458 1462 1466 1469 1473 1476 1478 1481 1484
1409 1403 1395 1396 1398 1403 1408 1411 1410 1415 1410 1409 1399 1389 1381 1377 1377 1378 1381 1384 1387 1391 1396 1400 1405 1409 1413 1417 1421 1426 1430 1435 1440 1444 1448 1452 1456 1460 1464 1468 1471 1474 1477 1480
1410 1406 1397 1396 1398 1398 1400 1405 1412 1416 1415 1413 1396 1387 1381 1376 1374 1375 1377 1380 1383 1387 1391 1395 1399 1404 1408 1412 1416 1421 1425 1429 1434 1438 1443 1447 1451 1454 1458 1463 1466 1469 1472 1475
1410 1409 1401 1397 1395 1394 1398 1402 1404 1407 1404 1402 1399 1386 1363 1364 1365 1368 1371 1374 1378 1382 1386 1391 1395 1399 1403 1407 1411 1416 1420 1424 1429 1433 1437 1442 1446 1450 1453 1457 1461 1464 1468 1470
1410 1408 1403 1396 1390 1390 1392 1392 1397 1403 1400 1394 1391 1381 1357 1357 1358 1361 1365 1370 1374 1378 1383 1387 1391 1395 1398 1402 1406 1410 1415 1419 1423 1428 1432 1436 1441 1445 1449 1452 1456 1460 1463 1466
1409 1410 1406 1397 1394 1394 1393 1391 1393 1394 1393 1390 1390 1380 1360 1358 1359 1360 1362 1367 1371 1375 1380 1384 1387 1390 1394 1397 1401 1405 1409 1414 1418 1423 1427 1431 1436 1440 1444 1448 1452 1455 1458 1461
1407 1407 1406 1400 1393 1394 1394 1391 1390 1394 1394 1389 1382 1373 1365 1363 1362 1362 1362 1365 1369 1373 1376 1380 1383 1386 1390 1393 1397 1401 1405 1409 1414 1418 1422 1426 1430 1435 1439 1443 1447 1450 1454 1457
1406 1405 1400 1394 1389 1388 1388 1386 1386 1387 1386 1387 1376 1370 1364 1362 1362 1362 1363 1365 1368 1371 1374 1376 1379 1383 1386 1390 1393 1397 1401 1405 1409 1413 1417 1422 1426 1430 1435 1439 1442 1446 1449 1452
1404 1404 1400 1393 1386 1384 1382 1378 1378 1378 1378 1378 1373 1366 1360 1359 1359 1361 1362 1363 1366 1369 1371 1373 1376 1379 1382 1385 1389 1392 1396 1401 1405 1409 1413 1418 1422 1426 1430 1434 1438 1441 1445 1448
1403 1403 1401 1393 1385 1384 1379 1368 1368 1368 1367 1369 1368 1362 1358 1358 1358 1358 1360 1361 1363 1365 1368 1370 1373 1375 1378 1381 1384 1388 1392 1397 1401 1405 1409 1413 1417 1421 1425 1429 1433 1437 1440 1443
1399 1400 1400 1394 1389 1388 1367 1357 1358 1360 1359 1360 1359 1358 1357 1357 1356 1357 1359 1360 1361 1363 1366 1368 1370 1372 1375 1378 1381 1385 1389 1393 1397 1401 1405 1409 1413 1417 1421 1425 1428 1432 1436 1439
1391 1395 1396 1393 1386 1374 1360 1355 1355 1356 1354 1355 1355 1355 1354 1354 1355 1355 1356 1357 1359 1360 1363 1365 1366 1369 1372 1374 1377 1381 1385 1389 1393 1397 1401 1405 1409 1413 1416 1420 1424 1428 1431 1435
1384 1388 1393 1390 1384 1372 1357 1351 1350 1354 1354 1352 1352 1352 1352 1352 1356 1353 1353 1355 1357 1358 1360 1362 1364 1366 1368 1371 1374 1377 1380 1384 1388 1392 1396 1401 1405 1409 1412 1416 1420 1424 1427 1431
1383 1385 1386 1385 1380 1366 1356 1351 1349 1359 1357 1351 1349 1349 1350 1350 1351 1351 1352 1353 1354 1354 1356 1358 1360 1362 1364 1367 1370 1373 1376 1379 1384 1389 1393 1397 1401 1405 1408 1412 1416 1420 1423 1427
1378 1379 1379 1378 1376 1369 1355 1352 1355 1356 1353 1350 1348 1348 1348 1348 1347 1348 1348 1349 1350 1351 1352 1354 1355 1357 1360 1363 1365 1368 1371 1375 1380 1384 1389 1393 1397 1401 1404 1408 1412 1416 1419 1423
1369 1370 1369 1369 1365 1356 1353 1354 1353 1353 1352 1350 1349 1347 1347 1346 1346 1346 1346 1346 1347 1348 1349 1350 1351 1353 1355 1358 1361 1364 1367 1371 1376 1380 1384 1388 1392 1397 1400 1404 1407 1411 1415 1418
1363 1362 1362 1360 1355 1353 1352 1351 1351 1351 1351 1349 1348 1347 1346 1345 1344 1344 1344 1343 1343 1344 1345 1346 1347 1348 1351 1353 1356 1359 1363 1367 1371 1375 1379 1384 1388 1392 1396 1400 1404 1407 1410 1414
1361 1360 1358 1356 1352 1350 1349 1349 1349 1349 1348 1347 1346 1345 1344 1343 1341 1340 1340 1339 1339 1339 1340 1341 1343 1344 1346 1348 1351 1355 1358 1362 1366 1371 1375 1379 1383 1388 1392 1396 1400 1403 1407 1410
1356 1355 1355 1351 1348 1348 1346 1346 1346 1345 1344 1344 1343 1341 1340 1340 1338 1337 1336 1335 1335 1335 1335 1336 1338 1339 1341 1344 1346 1350 1354 1358 1361 1365 1370 1374 1379 1383 1387 1391 1395 1400 1404 1408